Location: Holiday Acres Laynes 2 Mobile Home Park
(26.7249°N, 81.8671°W)
Time: 16:27:50
(UTC+00:00)

STARLINK-1159 - Visible Passes

Search period start: 22 June 2021 00:00
Search period end: 02 July 2021 00:00
Orbit: 546 x 548 km, 53.1° (Epoch: 22 June)

Date Brightness Start Highest point End Pass type
(mag) Time Alt. Az. Time Alt. Az. Time Alt. Az.
22 Jun 6.0 03:13:24 10° N 03:15:09 18° NNE 03:15:09 18° NNE visible
23 Jun 5.7 03:06:48 10° NNW 03:08:55 23° N 03:08:55 23° N visible
24 Jun 5.3 03:00:15 10° NNW 03:02:43 30° N 03:02:43 30° N visible
25 Jun 4.9 02:53:48 10° NNW 02:56:33 39° NNW 02:56:33 39° NNW visible
26 Jun 6.1 01:10:47 10° NNE 01:11:35 10° NE 01:12:23 10° NE visible
26 Jun 4.5 02:47:23 10° NW 02:50:25 48° NW 02:50:25 48° NW visible
27 Jun 5.9 01:03:08 10° N 01:05:22 14° NE 01:07:36 10° ENE visible
27 Jun 4.4 02:41:04 10° NW 02:44:20 47° W 02:44:20 47° W visible
28 Jun 5.5 00:56:07 10° N 00:59:06 19° NE 01:02:03 10° E visible
28 Jun 4.7 02:34:50 10° WNW 02:38:18 37° WSW 02:38:18 37° WSW visible
29 Jun 5.1 00:49:17 10° NNW 00:52:46 25° NE 00:56:13 10° E visible
29 Jun 5.2 02:28:44 10° WNW 02:32:09 26° SW 02:32:19 25° SW visible
30 Jun 5.7 02:22:50 10° W 02:25:37 18° WSW 02:26:23 17° SW visible
01 Jul 6.2 02:17:29 10° W 02:19:03 12° WSW 02:20:31 10° SW visible
